[[{"header":{"parameterUnit":"m.s-1","parameterCategory":1,"la1":30.2991,"la2":30.254,"lo1":-89.0895,"lo2":-89.0444,"dy":0.0017,"dx":0.0017,"nx":28,"ny":28,"refTime":"2023-10-17T09:00:00:Z","depth":0,"parameterNumber":2,"parameterNumberName":"U-component_of_WINDS"},"data":[0,0,0,0,0,0,0,0,0,0,0,0,0,0,0,0,0,0,0,0,0,0,0,0,0,0,0,0,0,0,0,0,0,0,0,0,0,0,0,0,0,0,0,0,0,0,0,0,0,0,0,0,0,0,0,0,0,0,-1.7495,-1.7497,0,-1.7679,-1.7681,-1.7683,-1.7767,-1.7767,-1.7766,-1.7766,-1.795,-1.7955,-1.796,0,0,0,0,0,0,0,0,0,0,0,0,0,-1.7214,-1.7218,-1.7495,-1.7497,-1.75,-1.7678,-1.7681,-1.7683,-1.7767,-1.7767,-1.7766,-1.7766,-1.7948,-1.7954,-1.796,0,0,0,0,0,0,0,0,0,0,0,0,0,-1.736,-1.722,-1.7495,-1.7563,-1.7571,-1.7678,-1.7681,-1.7684,-1.7767,-1.7767,-1.7766,-1.7766,-1.7946,-1.7954,-1.7961,-1.8013,0,0,-1.7984,-1.7988,0,0,0,0,0,0,0,0,-1.7352,-1.737,-1.7551,-1.7558,-1.7567,-1.77,-1.7649,-1.7794,-1.7767,-1.7692,-1.7766,-1.7766,-1.7867,-1.7881,-1.7916,-1.8021,-1.8029,-1.7985,-1.799,-1.7993,-1.7995,0,0,0,0,0,0,0,-1.7342,-1.7363,-1.7568,-1.7553,-1.7563,-1.7583,-1.7604,-1.7677,-1.7778,-1.7699,-1.7705,-1.7726,-1.7871,-1.7908,-1.792,-1.8032,-1.7985,-1.7991,-1.7996,-1.7999,-1.8191,-1.8191,0,0,0,0,0,0,-1.7321,-1.7354,-1.7562,-1.7573,-1.7457,-1.7589,-1.7612,-1.7657,-1.7778,-1.7796,-1.7726,-1.7729,-1.7895,-1.7912,-1.7927,-1.7997,-1.7993,-1.8,-1.8004,-1.819,-1.8191,-1.8191,0,0,0,0,0,0,-1.7314,-1.7338,-1.7554,-1.7466,-1.7495,-1.7594,-1.7644,-1.7661,-1.7698,-1.7799,-1.7817,-1.7745,-1.7896,-1.7917,-1.7992,-1.8004,-1.8003,-1.801,-1.8189,-1.819,-1.8191,-1.8135,0,0,0,0,0,0,-1.7306,-1.7336,-1.7357,-1.7465,-1.7499,-1.7616,-1.7645,-1.7665,-1.7712,-1.7717,-1.7822,-1.7838,-1.7897,-1.798,-1.7999,-1.8015,-1.8016,-1.8189,-1.819,-1.8191,-1.8136,-1.8134,-1.8132,0,0,0,0,0,-1.7296,-1.7333,-1.7358,-1.7382,-1.7528,-1.7617,-1.7636,-1.7704,-1.7712,-1.7734,-1.7799,-1.7835,-1.8,-1.7987,-1.8009,-1.8027,-1.8188,-1.819,-1.8191,-1.8137,-1.8134,-1.8132,0,0,0,0,0,0,-1.7221,-1.7348,-1.7377,-1.745,-1.7522,-1.7631,-1.766,-1.7698,-1.7768,-1.7771,-1.7851,-1.7874,-1.7941,-1.7992,-1.7975,-1.8084,-1.8097,-1.8103,-1.8049,-1.8047,-1.8045,-1.8031,-1.8022,0,0,0,0,0,-1.7214,-1.7276,-1.7383,-1.7438,-1.7473,-1.756,-1.7601,-1.7648,-1.7725,-1.7755,-1.7825,-1.7898,-1.7966,-1.8009,-1.8077,-1.8144,-1.8168,-1.8167,-1.8165,-1.8163,-1.8167,-1.8206,-1.8208,-1.8195,-1.8195,-1.8195,0,0,-1.7198,-1.7275,-1.7309,-1.7425,-1.7486,-1.7549,-1.7585,-1.7649,-1.7696,-1.7765,-1.784,-1.7894,-1.798,-1.8051,-1.8086,-1.8096,-1.8175,-1.8164,-1.8162,-1.8167,-1.8208,-1.8209,-1.821,-1.8196,-1.8196,-1.8196,0,0,-1.7202,-1.7266,-1.7319,-1.738,-1.7473,-1.7532,-1.7544,-1.7648,-1.7687,-1.7764,-1.7817,-1.7873,-1.7989,-1.8049,-1.8094,-1.8122,-1.8158,-1.8142,-1.813,-1.8168,-1.8169,-1.817,-1.818,-1.8183,-1.8145,-1.8145,-1.8145,0,-1.717,-1.7268,-1.7341,-1.7404,-1.7453,-1.7519,-1.7573,-1.7628,-1.7738,-1.777,-1.7779,-1.7927,-1.7989,-1.8076,-1.8083,-1.8117,-1.8134,-1.813,-1.8163,-1.8165,-1.8167,-1.8178,-1.8182,-1.8143,-1.8143,-1.8143,-1.8143,0,-1.7225,-1.7291,-1.7323,-1.7429,-1.7482,-1.7539,-1.7621,-1.7665,-1.7707,-1.7764,-1.7843,-1.792,-1.8006,-1.803,-1.8071,-1.8123,-1.8126,-1.8148,-1.8163,-1.8165,-1.8176,-1.8181,-1.8139,-1.814,-1.8141,-1.8141,0,0,-1.7186,-1.7333,-1.7344,-1.7393,-1.7501,-1.7554,-1.7614,-1.77,-1.7737,-1.781,-1.7863,-1.796,-1.7982,-1.8033,-1.8081,-1.8114,-1.8132,-1.8133,-1.8136,-1.813,-1.8195,-1.8178,-1.8181,-1.8157,-1.8158,-1.8159,-1.8188,0,-1.7205,-1.7318,-1.7386,-1.7471,-1.7534,-1.7599,-1.7652,-1.7723,-1.7778,-1.7839,-1.7899,-1.7967,-1.799,-1.8022,-1.8058,-1.8122,-1.8146,-1.8121,-1.8207,-1.8209,-1.8183,-1.8188,-1.8169,-1.8193,-1.8193,-1.8194,-1.8194,0,-1.7242,-1.7316,-1.7407,-1.751,-1.7539,-1.7585,-1.767,-1.7727,-1.7809,-1.7847,-1.7905,-1.7954,-1.802,-1.803,-1.8122,-1.8104,-1.8143,-1.818,-1.8182,-1.8193,-1.8201,-1.8198,-1.8202,-1.8205,-1.8202,-1.8201,-1.8201,0,-1.7205,-1.7327,-1.7398,-1.7439,-1.7559,-1.7591,-1.7642,-1.7725,-1.7772,-1.7846,-1.7877,-1.7956,-1.8,-1.806,-1.8129,-1.8129,-1.8214,-1.8229,-1.8247,-1.8245,-1.8262,-1.826,-1.8272,-1.8286,-1.8286,-1.8286,-1.8286,0,-1.7219,-1.7272,-1.7384,-1.7427,-1.7489,-1.7567,-1.7626,-1.7683,-1.7756,-1.7811,-1.7871,-1.7922,-1.801,-1.8071,-1.8125,-1.8193,-1.8212,-1.8244,-1.8258,-1.8239,-1.8235,-1.8266,-1.8266,-1.8287,-1.8287,-1.8287,-1.8287,0,-1.7188,-1.7264,-1.7346,-1.7455,-1.7483,-1.7524,-1.7617,-1.7661,-1.772,-1.7789,-1.781,-1.7902,-1.7977,-1.8052,-1.8153,-1.8189,-1.8257,-1.8275,-1.8229,-1.8237,-1.8251,-1.8248,-1.8283,-1.8291,-1.8299,-1.8299,-1.8299,0,-1.7191,-1.7235,-1.7348,-1.7391,-1.7441,-1.7508,-1.7558,-1.7636,-1.7685,-1.7783,-1.7815,-1.7895,-1.7964,-1.8081,-1.8156,-1.8233,-1.8254,-1.8261,-1.8266,-1.8246,-1.8255,-1.8252,-1.8256,-1.8258,-1.8258,-1.8257,-1.8257,0,-1.719,-1.7227,-1.7296,-1.7379,-1.7437,-1.7506,-1.7576,-1.7607,-1.7699,-1.7751,-1.783,-1.7883,-1.7987,-1.8065,-1.8152,-1.8204,-1.8246,-1.8255,-1.8264,-1.8244,-1.8216,-1.8232,-1.8223,-1.8254,-1.8254,-1.8254,-1.8255,-1.8255,-1.7178,-1.7219,-1.7306,-1.7382,-1.7444,-1.7509,-1.7557,-1.7622,-1.769,-1.7782,-1.7824,-1.7903,-1.7985,-1.8106,-1.8158,-1.822,-1.8231,-1.8243,-1.8246,-1.8248,-1.8244,-1.8206,-1.8236,-1.8236,-1.8237,-1.8237,-1.8237,0,-1.718,-1.724,-1.7309,-1.7407,-1.7466,-1.7502,-1.7583,-1.763,-1.7699,-1.7773,-1.7839,-1.793,-1.8007,-1.8089,-1.817,-1.8205,-1.8226,-1.8224,-1.8222,-1.8233,-1.8229,-1.8214,-1.8205,-1.8205,-1.8205,-1.8205,-1.8205,-1.8205,-1.7188,-1.7261,-1.7308,-1.7412,-1.7471,-1.7551,-1.7594,-1.7654,-1.7714,-1.7812,-1.7877,-1.7931,-1.8008,-1.8096,-1.8168,-1.819,-1.8218,-1.821,-1.8237,-1.8231,-1.8233,-1.8236,-1.8222,-1.8215,-1.8215,-1.8237,-1.8237,-1.8237]},{"header":{"parameterUnit":"m.s-1","parameterCategory":1,"la1":30.2991,"la2":30.254,"lo1":-89.0895,"lo2":-89.0444,"dy":0.0017,"dx":0.0017,"nx":28,"ny":28,"refTime":"2023-10-17T09:00:00:Z","depth":0,"parameterNumber":3,"parameterNumberName":"V-component_of_WINDS"},"data":[0,0,0,0,0,0,0,0,0,0,0,0,0,0,0,0,0,0,0,0,0,0,0,0,0,0,0,0,0,0,0,0,0,0,0,0,0,0,0,0,0,0,0,0,0,0,0,0,0,0,0,0,0,0,0,0,0,0,-1.1916,-1.1916,0,-1.1869,-1.1869,-1.1868,-1.1846,-1.1846,-1.1846,-1.1846,-1.1799,-1.1797,-1.1796,0,0,0,0,0,0,0,0,0,0,0,0,0,-1.1987,-1.1986,-1.1916,-1.1916,-1.1915,-1.1869,-1.1869,-1.1868,-1.1846,-1.1846,-1.1846,-1.1846,-1.1799,-1.1798,-1.1796,0,0,0,0,0,0,0,0,0,0,0,0,0,-1.195,-1.1985,-1.1917,-1.1898,-1.1896,-1.187,-1.1869,-1.1868,-1.1846,-1.1846,-1.1846,-1.1846,-1.18,-1.1798,-1.1796,-1.1784,0,0,-1.179,-1.1789,0,0,0,0,0,0,0,0,-1.1952,-1.1947,-1.1902,-1.19,-1.1897,-1.1863,-1.1876,-1.184,-1.1846,-1.1865,-1.1846,-1.1846,-1.182,-1.1817,-1.1808,-1.1782,-1.178,-1.179,-1.1789,-1.1788,-1.1788,0,0,0,0,0,0,0,-1.1955,-1.1949,-1.1898,-1.1901,-1.1898,-1.1893,-1.1887,-1.1869,-1.1843,-1.1863,-1.1861,-1.1856,-1.1819,-1.181,-1.1807,-1.1779,-1.179,-1.1788,-1.1787,-1.1786,-1.1739,-1.1739,0,0,0,0,0,0,-1.196,-1.1951,-1.1899,-1.1896,-1.1925,-1.1891,-1.1886,-1.1874,-1.1843,-1.1839,-1.1856,-1.1855,-1.1813,-1.1809,-1.1805,-1.1788,-1.1788,-1.1786,-1.1785,-1.174,-1.1739,-1.1739,0,0,0,0,0,0,-1.1962,-1.1956,-1.1901,-1.1923,-1.1916,-1.189,-1.1878,-1.1873,-1.1864,-1.1838,-1.1833,-1.1851,-1.1813,-1.1808,-1.1789,-1.1786,-1.1785,-1.1784,-1.174,-1.174,-1.1739,-1.1754,0,0,0,0,0,0,-1.1964,-1.1956,-1.1952,-1.1923,-1.1915,-1.1886,-1.1878,-1.1872,-1.1861,-1.1859,-1.1832,-1.1828,-1.1812,-1.1792,-1.1787,-1.1783,-1.1782,-1.174,-1.174,-1.1739,-1.1754,-1.1755,-1.1755,0,0,0,0,0,-1.1966,-1.1958,-1.1951,-1.1945,-1.1908,-1.1886,-1.1881,-1.1863,-1.186,-1.1855,-1.1838,-1.1829,-1.1787,-1.179,-1.1785,-1.178,-1.174,-1.174,-1.1739,-1.1754,-1.1754,-1.1755,0,0,0,0,0,0,-1.1987,-1.1954,-1.1946,-1.1929,-1.191,-1.1882,-1.1875,-1.1865,-1.1847,-1.1846,-1.1825,-1.1819,-1.1802,-1.179,-1.1794,-1.1766,-1.1763,-1.1761,-1.1775,-1.1776,-1.1776,-1.178,-1.1781,0,0,0,0,0,-1.199,-1.1974,-1.1946,-1.1933,-1.1924,-1.1901,-1.1891,-1.1879,-1.1859,-1.1851,-1.1833,-1.1814,-1.1796,-1.1786,-1.1768,-1.1752,-1.1745,-1.1746,-1.1747,-1.1747,-1.1746,-1.1736,-1.1735,-1.1738,-1.1738,-1.1738,0,0,-1.1995,-1.1975,-1.1967,-1.1937,-1.1921,-1.1905,-1.1895,-1.1879,-1.1867,-1.1849,-1.1829,-1.1815,-1.1793,-1.1775,-1.1767,-1.1764,-1.1744,-1.1747,-1.1748,-1.1746,-1.1735,-1.1735,-1.1735,-1.1738,-1.1738,-1.1738,0,0,-1.1996,-1.198,-1.1967,-1.1951,-1.1926,-1.1911,-1.1908,-1.1881,-1.187,-1.1851,-1.1836,-1.1822,-1.1793,-1.1777,-1.1765,-1.1759,-1.1749,-1.1754,-1.1757,-1.1747,-1.1747,-1.1746,-1.1743,-1.1742,-1.1753,-1.1753,-1.1753,0,-1.2006,-1.1981,-1.1961,-1.1945,-1.1933,-1.1915,-1.1901,-1.1886,-1.1858,-1.185,-1.1847,-1.1809,-1.1793,-1.177,-1.1769,-1.176,-1.1755,-1.1757,-1.1748,-1.1748,-1.1747,-1.1744,-1.1743,-1.1754,-1.1754,-1.1754,-1.1753,0,-1.1993,-1.1976,-1.1969,-1.194,-1.1927,-1.1912,-1.189,-1.1879,-1.1867,-1.1852,-1.1832,-1.1812,-1.1789,-1.1783,-1.1773,-1.1759,-1.1758,-1.1752,-1.1748,-1.1748,-1.1744,-1.1743,-1.1755,-1.1754,-1.1754,-1.1754,0,0,-1.2007,-1.1967,-1.1965,-1.1951,-1.1922,-1.1909,-1.1893,-1.187,-1.186,-1.1841,-1.1827,-1.1802,-1.1796,-1.1783,-1.177,-1.1761,-1.1756,-1.1756,-1.1755,-1.1756,-1.1739,-1.1743,-1.1742,-1.175,-1.1749,-1.1749,-1.174,0,-1.2003,-1.1973,-1.1955,-1.1933,-1.1916,-1.1898,-1.1884,-1.1865,-1.185,-1.1834,-1.1818,-1.18,-1.1794,-1.1786,-1.1776,-1.1759,-1.1752,-1.1759,-1.1736,-1.1735,-1.1741,-1.174,-1.1744,-1.1737,-1.1739,-1.1739,-1.1739,0,-1.1995,-1.1975,-1.1951,-1.1923,-1.1915,-1.1903,-1.188,-1.1865,-1.1843,-1.1832,-1.1817,-1.1804,-1.1786,-1.1783,-1.1759,-1.1764,-1.1753,-1.1743,-1.1742,-1.1739,-1.1737,-1.1736,-1.1735,-1.1733,-1.1736,-1.1737,-1.1737,0,-1.2006,-1.1973,-1.1954,-1.1943,-1.191,-1.1902,-1.1888,-1.1865,-1.1853,-1.1833,-1.1824,-1.1803,-1.1791,-1.1775,-1.1756,-1.1756,-1.1733,-1.1729,-1.1724,-1.1724,-1.1719,-1.172,-1.1715,-1.1714,-1.1714,-1.1714,-1.1714,0,-1.2003,-1.1989,-1.1958,-1.1946,-1.193,-1.1908,-1.1892,-1.1877,-1.1857,-1.1842,-1.1826,-1.1812,-1.1788,-1.1772,-1.1757,-1.1738,-1.1733,-1.1724,-1.172,-1.1725,-1.1726,-1.1717,-1.1717,-1.1713,-1.1713,-1.1714,-1.1714,0,-1.2013,-1.1991,-1.1969,-1.1939,-1.1931,-1.192,-1.1895,-1.1882,-1.1866,-1.1847,-1.1842,-1.1817,-1.1796,-1.1776,-1.1749,-1.1739,-1.1719,-1.1715,-1.1727,-1.1724,-1.172,-1.172,-1.1709,-1.1706,-1.1707,-1.1707,-1.1708,0,-1.2012,-1.2,-1.1969,-1.1957,-1.1943,-1.1924,-1.1911,-1.1889,-1.1876,-1.1849,-1.184,-1.1818,-1.1799,-1.1766,-1.1746,-1.1725,-1.1719,-1.1717,-1.1716,-1.1721,-1.1718,-1.1718,-1.1717,-1.1717,-1.1717,-1.1717,-1.1717,0,-1.2013,-1.2002,-1.1983,-1.196,-1.1944,-1.1924,-1.1905,-1.1896,-1.1871,-1.1857,-1.1835,-1.182,-1.1791,-1.1769,-1.1745,-1.1731,-1.172,-1.1718,-1.1715,-1.172,-1.1727,-1.1722,-1.1727,-1.1718,-1.1718,-1.1718,-1.1718,-1.1718,-1.2016,-1.2004,-1.198,-1.1958,-1.1941,-1.1923,-1.1909,-1.1891,-1.1872,-1.1847,-1.1835,-1.1813,-1.179,-1.1757,-1.1743,-1.1725,-1.1722,-1.1719,-1.1718,-1.1717,-1.1717,-1.173,-1.1721,-1.1721,-1.1721,-1.1721,-1.172,0,-1.2015,-1.1998,-1.1979,-1.1951,-1.1934,-1.1924,-1.1902,-1.1888,-1.1868,-1.1848,-1.1829,-1.1804,-1.1782,-1.1759,-1.1737,-1.1727,-1.1721,-1.1721,-1.1722,-1.1718,-1.1722,-1.1726,-1.1726,-1.1726,-1.1726,-1.1726,-1.1726,-1.1726,-1.2013,-1.1992,-1.1978,-1.1948,-1.1932,-1.1909,-1.1897,-1.188,-1.1863,-1.1835,-1.1816,-1.1801,-1.178,-1.1755,-1.1735,-1.1729,-1.1721,-1.1722,-1.1715,-1.1719,-1.1718,-1.1718,-1.1721,-1.1721,-1.1721,-1.1713,-1.1713,-1.1713]}]]